Weather History for Hollywood, FL

Change the Weather History Date:

Tuesday, January 15, 2013

  Actual Average (KFLL) Record (KFLL)
Temperature  
Mean Temperature 72 °F 69 °F  
Max Temperature 80 °F 76 °F 84 °F (1972)
Min Temperature 64 °F 61 °F 31 °F (1948)
Degree Days  
Heating Degree Days 0 2  
Month to date heating degree days 30  
Since 1 July heating degree days 62  
Cooling Degree Days 7 5  
Month to date cooling degree days 84  
Year to date cooling degree days 84  
Growing Degree Days 22 (Base 50)    
Moisture  
Dew Point 64 °F    
Average Humidity 75    
Maximum Humidity 93    
Minimum Humidity 58    
Precipitation  
Precipitation 0.00 in 0.08 in 2.41 in (1974)
Month to date precipitation 1.23  
Year to date precipitation 1.23  
Snow  
Snow 0.00 in - - ()
Month to date snowfall  
Since 1 July snowfall  
Snow Depth -    
Sea Level Pressure  
Sea Level Pressure 30.12 in    
Wind  
Wind Speed 4 mph (ESE)    
Max Wind Speed 14 mph    
Max Gust Speed 18 mph    
Visibility 10 miles    
Events      
T = Trace of Precipitation, MM = Missing Value Source: NWS Daily Summary

Daily Weather History Graph

Daily Weather History Graph

Search for Another Location

Airport:

Trip Planner

Search our weather history database for the weather conditions in past years. The results will help you decide how hot, cold, wet, or windy it might be!

Date:

Astronomy

Jan. 15, 2013 Rise Set
Actual Time 7:09 AM EST 5:51 PM EST
Civil Twilight 6:44 AM EST 6:16 PM EST
Nautical Twilight 6:16 AM EST 6:44 PM EST
Astronomical Twilight 5:48 AM EST 7:12 PM EST
Moon 9:44 AM EST (1/15) 10:06 PM EST (1/15)
Length of Visible Light 11h 31m
Length of Day
10h 41m
Waxing Crescent, 19% of the Moon is Illuminated
Jan 15
Waxing Crescent
Jan 18
First Quarter
Jan 26
Full
Feb 3
Last Quarter
Feb 10
New

Hourly Weather History & Observations

Time (EST) Temp. Heat Index Dew Point Humidity Pressure Visibility Wind Dir Wind Speed Gust Speed Precip Events Conditions
12:53 AM 66.9 °F - 62.1 °F 84% 30.16 in 10.0 mi Calm Calm - N/A   Partly Cloudy
1:53 AM 66.9 °F - 63.0 °F 87% 30.14 in 10.0 mi Calm Calm - N/A   Clear
2:53 AM 66.0 °F - 63.0 °F 90% 30.13 in 10.0 mi Calm Calm - N/A   Clear
3:53 AM 64.9 °F - 62.1 °F 90% 30.12 in 10.0 mi Calm Calm - N/A   Scattered Clouds
4:53 AM 64.9 °F - 62.1 °F 90% 30.12 in 10.0 mi Calm Calm - N/A   Clear
5:53 AM 64.0 °F - 62.1 °F 93% 30.12 in 10.0 mi Calm Calm - N/A   Scattered Clouds
6:53 AM 66.0 °F - 63.0 °F 90% 30.13 in 10.0 mi Calm Calm - N/A   Mostly Cloudy
7:53 AM 69.1 °F - 66.0 °F 90% 30.14 in 10.0 mi Calm Calm - N/A   Mostly Cloudy
8:53 AM 75.9 °F - 66.0 °F 71% 30.16 in 10.0 mi ESE 10.4 mph - N/A   Partly Cloudy
9:53 AM 78.1 °F - 64.9 °F 64% 30.16 in 10.0 mi ESE 10.4 mph - N/A   Overcast
10:53 AM 78.1 °F - 64.9 °F 64% 30.15 in 10.0 mi ESE 12.7 mph - N/A   Overcast
11:04 AM 78.8 °F - 66.2 °F 65% 30.14 in 10.0 mi ESE 13.8 mph - N/A   Overcast
11:26 AM 78.8 °F - 64.4 °F 61% 30.13 in 10.0 mi East 13.8 mph - N/A   Overcast
11:53 AM 78.1 °F - 64.9 °F 64% 30.12 in 10.0 mi East 13.8 mph - N/A   Overcast
12:53 PM 78.1 °F - 64.9 °F 64% 30.10 in 10.0 mi East 12.7 mph 18.4 mph N/A   Overcast
1:53 PM 80.1 °F 81.7 °F 64.0 °F 58% 30.09 in 10.0 mi East 12.7 mph - N/A   Partly Cloudy
2:53 PM 79.0 °F - 64.0 °F 60% 30.09 in 10.0 mi East 12.7 mph - N/A   Partly Cloudy
3:53 PM 78.1 °F - 64.0 °F 62% 30.09 in 10.0 mi ESE 11.5 mph - N/A   Clear
4:53 PM 77.0 °F - 64.9 °F 66% 30.11 in 10.0 mi ESE 10.4 mph - N/A   Clear
5:53 PM 73.9 °F - 64.0 °F 71% 30.12 in 10.0 mi East 8.1 mph - N/A   Clear
6:53 PM 72.0 °F - 64.0 °F 76% 30.12 in 10.0 mi ESE 4.6 mph - N/A   Clear
7:53 PM 71.1 °F - 63.0 °F 75% 30.11 in 10.0 mi East 4.6 mph - N/A   Clear
8:53 PM 70.0 °F - 62.1 °F 76% 30.11 in 10.0 mi East 4.6 mph - N/A   Clear
9:53 PM 69.1 °F - 62.1 °F 78% 30.09 in 10.0 mi East 3.5 mph - N/A   Clear
10:53 PM 66.9 °F - 61.0 °F 81% 30.07 in 10.0 mi Calm Calm - N/A   Clear
11:53 PM 66.0 °F - 60.1 °F 81% 30.07 in 10.0 mi Calm Calm - N/A   Clear